Orbital Elements at Epoch 2459200.5 (2020-Dec-17.0) TDB
Reference: JPL 29 (heliocentric ecliptic J2000)
Element | Value | Uncertainty (1-sigma) | Units |
e | .1110232105043538 | 3.4605e-08 | |
a | 2.441188068995344 | 9.3805e-09 | au |
q | 2.170159532130557 | 8.5704e-08 | au |
i | 5.226499982867083 | 4.3134e-06 | deg |
node | 14.29568609360754 | 4.1739e-05 | deg |
peri | 16.28344856091007 | 4.6395e-05 | deg |
M | 180.4029327028805 | 2.0754e-05 | deg |
tp | 2459895.519556300254 (2022-Nov-12.01955630) | 8.1558e-05 | TDB |
period | 1393.157717069829 3.81 | 8.03e-06 2.198e-08 | d yr |
n | .2584057753038709 | 1.4894e-09 | deg/d |
Q | 2.712216605860131 | 1.0422e-08 | au |
|
| | Orbit Determination Parameters
Additional Information
|